Weather History for Caro, MI

Change the Weather History Date:

Wednesday, September 4, 2013

  Actual Average (KMBS) Record (KMBS)
Temperature  
Mean Temperature 66 °F 66 °F  
Max Temperature 81 °F 76 °F 89 °F (1999)
Min Temperature 50 °F 55 °F 38 °F (1997)
Degree Days  
Heating Degree Days 0    
Month to date heating degree days  
Since 1 July heating degree days  
Cooling Degree Days 0    
Month to date cooling degree days  
Year to date cooling degree days  
Growing Degree Days 16 (Base 50)    
Moisture  
Dew Point 56 °F    
Average Humidity 77    
Maximum Humidity 98    
Minimum Humidity 41    
Precipitation  
Precipitation 0.00 in 0.13 in 1.42 in (2012)
Month to date precipitation 0.48  
Year to date precipitation 21.00  
Snow  
Snow 0.00 in - - ()
Month to date snowfall  
Since 1 July snowfall  
Since 1 September snowfall  
Snow Depth -    
Sea Level Pressure  
Sea Level Pressure 30.02 in    
Wind  
Wind Speed 5 mph (West)    
Max Wind Speed 15 mph    
Max Gust Speed 23 mph    
Visibility 10 miles    
Events      
T = Trace of Precipitation, MM = Missing Value Source: NWS Daily Summary

Daily Weather History Graph

Daily Weather History Graph

Search for Another Location

Airport:

Trip Planner

Search our weather history database for the weather conditions in past years. The results will help you decide how hot, cold, wet, or windy it might be!

Date:

Astronomy

Sep. 04, 2013 Rise Set
Actual Time 7:01 AM EDT 8:03 PM EDT
Civil Twilight 6:32 AM EDT 8:32 PM EDT
Nautical Twilight 5:57 AM EDT 9:07 PM EDT
Astronomical Twilight 5:20 AM EDT 9:43 PM EDT
Moon 6:12 AM EDT (9/4) 7:21 PM EDT (9/4)
Length of Visible Light 14h 00m
Length of Day
13h 02m
Waning Crescent, 1% of the Moon is Illuminated
Sep 4
Waning Crescent
Sep 5
New
Sep 12
First Quarter
Sep 19
Full
Sep 26
Last Quarter

Hourly Weather History & Observations

Time (EDT) Temp. Heat Index Dew Point Humidity Pressure Visibility Wind Dir Wind Speed Gust Speed Precip Events Conditions
12:15 AM 54.0 °F - 51.4 °F 91% 30.00 in 10.0 mi Calm Calm - N/A   Clear
12:35 AM 54.1 °F - 52.0 °F 92% 30.00 in 10.0 mi Calm Calm - N/A   Clear
12:55 AM 52.3 °F - 50.4 °F 93% 30.01 in 10.0 mi Calm Calm - N/A   Clear
1:15 AM 51.4 °F - 50.0 °F 95% 30.00 in 10.0 mi Calm Calm - N/A   Clear
1:34 AM 51.6 °F - 50.0 °F 94% 30.00 in 10.0 mi SW 3.5 mph - N/A   Clear
1:55 AM 51.3 °F - 50.0 °F 95% 30.00 in 10.0 mi SW 3.5 mph - N/A   Clear
2:15 AM 52.2 °F - 51.1 °F 96% 30.00 in 10.0 mi SW 3.5 mph - N/A   Clear
2:34 AM 52.0 °F - 50.9 °F 96% 30.00 in 10.0 mi Calm Calm - N/A   Clear
2:55 AM 51.8 °F - 50.5 °F 95% 30.00 in 10.0 mi SSW 3.5 mph - N/A   Clear
3:14 AM 51.8 °F - 50.5 °F 95% 30.00 in 10.0 mi SW 5.8 mph - N/A   Clear
3:35 AM 51.8 °F - 50.9 °F 97% 30.00 in 10.0 mi SSW 4.6 mph - N/A   Clear
3:55 AM 51.8 °F - 50.9 °F 97% 30.00 in 10.0 mi Calm Calm - N/A   Clear
4:14 AM 51.6 °F - 50.7 °F 97% 30.00 in 10.0 mi Calm Calm - N/A   Clear
4:35 AM 51.8 °F - 50.9 °F 97% 30.00 in 10.0 mi Calm Calm - N/A   Clear
4:54 AM 50.9 °F - 50.2 °F 97% 30.00 in 10.0 mi Calm Calm - N/A   Clear
5:15 AM 50.9 °F - 50.2 °F 97% 30.00 in 10.0 mi SW 3.5 mph - N/A   Clear
5:35 AM 52.0 °F - 51.4 °F 98% 30.01 in 10.0 mi SW 3.5 mph - N/A   Clear
5:54 AM 53.6 °F - 53.1 °F 98% 30.02 in 10.0 mi SW 5.8 mph - N/A   Clear
6:15 AM 53.8 °F - 53.1 °F 97% 30.02 in 10.0 mi SW 4.6 mph - N/A   Clear
6:35 AM 55.4 °F - 54.5 °F 97% 30.02 in 10.0 mi SW 6.9 mph - N/A   Clear
6:54 AM 55.8 °F - 55.0 °F 97% 30.02 in 10.0 mi SW 6.9 mph - N/A   Clear
7:15 AM 56.5 °F - 55.8 °F 97% 30.02 in 10.0 mi SW 9.2 mph - N/A   Clear
7:35 AM 57.4 °F - 56.5 °F 97% 30.02 in 10.0 mi SW 10.4 mph - N/A   Clear
7:54 AM 58.1 °F - 57.2 °F 97% 30.02 in 10.0 mi SW 9.2 mph - N/A   Clear
8:15 AM 60.1 °F - 58.1 °F 93% 30.02 in 10.0 mi WSW 10.4 mph - N/A   Clear
8:34 AM 61.3 °F - 58.1 °F 89% 30.03 in 10.0 mi WSW 10.4 mph - N/A   Clear
8:55 AM 62.6 °F - 58.6 °F 87% 30.03 in 10.0 mi SW 11.5 mph - N/A   Clear
9:15 AM 64.0 °F - 59.2 °F 84% 30.03 in 10.0 mi WSW 10.4 mph 16.1 mph N/A   Clear
9:34 AM 65.8 °F - 59.7 °F 81% 30.03 in 10.0 mi SW 9.2 mph - N/A   Clear
9:55 AM 67.5 °F - 59.0 °F 74% 30.03 in 10.0 mi WSW 9.2 mph - N/A   Clear
10:15 AM 68.9 °F - 58.1 °F 68% 30.04 in 10.0 mi WSW 13.8 mph 18.4 mph N/A   Clear
10:34 AM 70.2 °F - 57.4 °F 64% 30.04 in 10.0 mi West 11.5 mph 17.3 mph N/A   Clear
10:55 AM 71.6 °F - 56.8 °F 60% 30.04 in 10.0 mi West 10.4 mph 16.1 mph N/A   Clear
11:15 AM 73.0 °F - 56.1 °F 55% 30.04 in 10.0 mi West 10.4 mph - N/A   Clear
11:34 AM 74.3 °F - 54.3 °F 50% 30.04 in 10.0 mi WSW 10.4 mph 17.3 mph N/A   Clear
11:55 AM 75.6 °F - 54.1 °F 47% 30.03 in 10.0 mi West 13.8 mph 21.9 mph N/A   Clear
12:15 PM 76.6 °F - 53.6 °F 45% 30.03 in 10.0 mi WSW 13.8 mph - N/A   Clear
12:34 PM 76.5 °F - 53.2 °F 44% 30.03 in 10.0 mi WSW 12.7 mph 20.7 mph N/A   Clear
12:55 PM 77.5 °F - 54.0 °F 44% 30.03 in 10.0 mi West 12.7 mph 19.6 mph N/A   Clear
1:14 PM 78.6 °F - 55.4 °F 45% 30.02 in 10.0 mi SW 12.7 mph 18.4 mph N/A   Clear
1:35 PM 79.0 °F - 55.2 °F 44% 30.02 in 10.0 mi SW 12.7 mph 23.0 mph N/A   Scattered Clouds
1:55 PM 80.2 °F 80.4 °F 55.9 °F 43% 30.02 in 10.0 mi WSW 8.1 mph 18.4 mph N/A   Clear
2:14 PM 79.9 °F - 55.6 °F 43% 30.01 in 10.0 mi WSW 9.2 mph 18.4 mph N/A   Clear
2:35 PM 81.0 °F 80.8 °F 55.8 °F 42% 30.01 in 10.0 mi SW 11.5 mph 18.4 mph N/A   Scattered Clouds
2:54 PM 81.3 °F 81.0 °F 55.6 °F 41% 30.00 in 10.0 mi SW 15.0 mph 21.9 mph N/A   Mostly Cloudy
3:15 PM 80.1 °F 80.3 °F 56.5 °F 44% 30.00 in 10.0 mi West 10.4 mph 16.1 mph N/A   Overcast
3:35 PM 79.7 °F - 56.3 °F 44% 30.00 in 10.0 mi West 11.5 mph 16.1 mph N/A   Overcast
3:54 PM 79.3 °F - 57.0 °F 46% 30.00 in 10.0 mi WSW 9.2 mph - N/A   Overcast
4:15 PM 79.5 °F - 56.8 °F 46% 29.99 in 10.0 mi WSW 6.9 mph 17.3 mph N/A   Overcast
4:35 PM 78.4 °F - 57.6 °F 49% 29.99 in 10.0 mi WNW 6.9 mph - N/A   Overcast
4:54 PM 75.0 °F - 61.0 °F 62% 30.00 in 10.0 mi North 12.7 mph 17.3 mph N/A   Overcast
5:15 PM 73.4 °F - 61.7 °F 67% 30.00 in 10.0 mi North 8.1 mph - N/A   Mostly Cloudy
5:35 PM 74.1 °F - 61.7 °F 65% 30.00 in 10.0 mi NNE 6.9 mph - N/A   Scattered Clouds
5:54 PM 73.4 °F - 61.2 °F 65% 30.01 in 10.0 mi NNE 5.8 mph - N/A   Mostly Cloudy
6:15 PM 73.6 °F - 61.0 °F 65% 30.01 in 10.0 mi NNE 4.6 mph - N/A   Mostly Cloudy
6:34 PM 72.5 °F - 60.4 °F 66% 30.02 in 10.0 mi North 8.1 mph - N/A   Mostly Cloudy
6:55 PM 70.7 °F - 60.8 °F 71% 30.02 in 10.0 mi North 5.8 mph - N/A   Overcast
7:14 PM 70.9 °F - 61.5 °F 72% 30.02 in 10.0 mi North 8.1 mph - N/A   Overcast
7:35 PM 68.7 °F - 61.9 °F 79% 30.03 in 10.0 mi North 4.6 mph - N/A   Mostly Cloudy
7:54 PM 67.5 °F - 61.9 °F 82% 30.03 in 10.0 mi Calm Calm - N/A   Scattered Clouds
8:15 PM 66.2 °F - 61.2 °F 84% 30.04 in 10.0 mi NNE 4.6 mph - N/A   Scattered Clouds
8:35 PM 66.6 °F - 61.3 °F 83% 30.05 in 10.0 mi North 3.5 mph - N/A   Overcast
8:54 PM 65.7 °F - 61.2 °F 85% 30.06 in 10.0 mi NE 3.5 mph - N/A   Mostly Cloudy
9:15 PM 64.2 °F - 60.3 °F 87% 30.07 in 10.0 mi Calm Calm - N/A   Scattered Clouds
9:35 PM 62.2 °F - 59.4 °F 90% 30.07 in 10.0 mi Calm Calm - N/A   Scattered Clouds
9:54 PM 60.8 °F - 58.6 °F 93% 30.08 in 10.0 mi North 4.6 mph - N/A   Mostly Cloudy
10:15 PM 61.5 °F - 59.7 °F 94% 30.08 in 10.0 mi Calm Calm - N/A   Mostly Cloudy
10:34 PM 61.3 °F - 59.5 °F 94% 30.09 in 10.0 mi NNW 3.5 mph - N/A   Mostly Cloudy
10:55 PM 61.7 °F - 59.9 °F 94% 30.09 in 10.0 mi North 3.5 mph - N/A   Overcast
11:15 PM 62.8 °F - 60.6 °F 93% 30.10 in 10.0 mi NNW 5.8 mph - N/A   Overcast
11:34 PM 62.1 °F - 59.9 °F 93% 30.10 in 10.0 mi North 3.5 mph - N/A   Overcast
11:55 PM 61.3 °F - 59.0 °F 92% 30.10 in 10.0 mi NE 3.5 mph - N/A   Mostly Cloudy